Location: Tierz
(42.1336°N, 0.3549°W)
Time: 06:18:30
(UTC+00:00)

Meteor 2-10 Rocket - Pass Details

Date: 29 October 2020
Orbit: 733 x 885 km, 81.2° (Epoch: 26 November)

Event Time Altitude Azimuth Distance (km) Brightness Sun altitude
Rises 17:46:50 0° 168° (SSE) 3,307 6.8 -9.5°
Reaches altitude 10° 17:49:22 10° 161° (SSE) 2,357 5.9 -10.0°
Maximum altitude 17:54:16 40° 93° (E) 1,138 3.9 -10.9°
Drops below altitude 10° 17:59:01 10° 25° (NNE) 2,290 5.6 -11.7°
Sets 18:01:27 0° 18° (NNE) 3,203 6.5 -12.2°
